Sturgis, MI

5:34 AM EDT on March 28, 2017 (GMT -0400)
Kirsch Municipal

Weather History for KIRS - October, 2012

Change the Weather History Date:

Wednesday, October 24, 2012

  Actual Average (KHAI) Record (KHAI)
Temperature  
Mean Temperature 66 °F -  
Max Temperature 75 °F 60 °F 78 °F (1963)
Min Temperature 57 °F 37 °F 22 °F (1969)
Cooling Degree Days 1    
Growing Degree Days 16 (Base 50)    
Moisture  
Dew Point 59 °F    
Average Humidity 79    
Maximum Humidity 94    
Minimum Humidity 61    
Precipitation  
Precipitation 0.00 in - - ()
Sea Level Pressure  
Sea Level Pressure 29.98 in    
Wind  
Wind Speed 6 mph (South)    
Max Wind Speed 14 mph    
Max Gust Speed 18 mph    
Visibility 10 miles    
Events Rain    
Averages and records for this station are not official NWS values.
T = Trace of Precipitation, MM = Missing Value Source: NWS Daily Summary

Daily Weather History Graph

Daily Weather History Graph

Search for Another Location

Airport or City:

Trip Planner

Search our weather history database for the weather conditions in past years. The results will help you decide how hot, cold, wet, or windy it might be!

Date:

Astronomy

Oct. 24, 2012 Rise Set
Actual Time 8:05 AM EDT 6:46 PM EDT
Civil Twilight 7:36 AM EDT 7:14 PM EDT
Nautical Twilight 7:03 AM EDT 7:47 PM EDT
Astronomical Twilight 6:31 AM EDT 8:19 PM EDT
Moon 4:05 PM EDT (10/24) 2:55 AM EDT (10/24)
Length of Visible Light 11h 38m
Length of Day
10h 41m
Waxing Gibbous, 76% of the Moon is Illuminated
Oct 24
Waxing Gibbous
Oct 29
Full
Nov 6
Last Quarter
Nov 13
New
Nov 20
First Quarter

Hourly Weather History & Observations

Time (EDT) Temp. Dew Point Humidity Pressure Visibility Wind Dir Wind Speed Gust Speed Precip Events Conditions
12:14 AM 60.8 °F 59.0 °F 94% 29.99 in 10.0 mi SSE 4.6 mph - N/A   Mostly Cloudy
12:35 AM 60.8 °F 59.0 °F 94% 29.99 in 10.0 mi SE 4.6 mph - N/A   Overcast
12:55 AM 60.8 °F 59.0 °F 94% 29.99 in 10.0 mi SSE 3.5 mph - N/A   Overcast
1:14 AM 62.6 °F 59.0 °F 88% 29.99 in 10.0 mi South 3.5 mph - N/A   Overcast
1:35 AM 60.8 °F 59.0 °F 94% 29.99 in 7.0 mi SSE 3.5 mph - N/A Rain Rain
2:14 AM 60.8 °F 59.0 °F 94% 29.99 in 5.0 mi SE 4.6 mph - N/A Rain Light Rain
2:35 AM 60.8 °F 59.0 °F 94% 29.99 in 10.0 mi SE 3.5 mph - N/A   Overcast
2:54 AM 60.8 °F 57.2 °F 88% 29.99 in 7.0 mi SSE 4.6 mph - N/A   Scattered Clouds
3:15 AM 60.8 °F 59.0 °F 94% 29.99 in 7.0 mi SSE 3.5 mph - N/A   Mostly Cloudy
3:35 AM 60.8 °F 57.2 °F 88% 29.98 in 7.0 mi SSE 4.6 mph - N/A   Mostly Cloudy
3:54 AM 60.8 °F 57.2 °F 88% 29.98 in 7.0 mi SSE 3.5 mph - N/A   Mostly Cloudy
4:15 AM 60.8 °F 57.2 °F 88% 29.98 in 7.0 mi South 3.5 mph - N/A   Overcast
4:35 AM 60.8 °F 57.2 °F 88% 29.97 in 10.0 mi South 5.8 mph - N/A   Overcast
4:54 AM 60.8 °F 57.2 °F 88% 29.98 in 10.0 mi South 5.8 mph - N/A   Overcast
5:15 AM 60.8 °F 57.2 °F 88% 29.97 in 10.0 mi South 4.6 mph - N/A   Overcast
5:35 AM 60.8 °F 57.2 °F 88% 29.98 in 10.0 mi South 3.5 mph - N/A   Overcast
5:55 AM 60.8 °F 57.2 °F 88% 29.98 in 10.0 mi Calm Calm - N/A   Overcast
6:15 AM 60.8 °F 57.2 °F 88% 29.99 in 10.0 mi Calm Calm - N/A   Overcast
6:34 AM 60.8 °F 57.2 °F 88% 29.99 in 10.0 mi Calm Calm - N/A   Scattered Clouds
6:55 AM 60.8 °F 57.2 °F 88% 29.99 in 10.0 mi Calm Calm - N/A   Clear
7:15 AM 57.2 °F 55.4 °F 94% 29.99 in 10.0 mi SSE 3.5 mph - N/A   Clear
7:34 AM 57.2 °F 55.4 °F 94% 30.00 in 10.0 mi South 4.6 mph - N/A   Clear
7:55 AM 57.2 °F 55.4 °F 94% 29.99 in 10.0 mi SE 4.6 mph - N/A   Clear
8:15 AM 59.0 °F 55.4 °F 88% 30.00 in 10.0 mi Calm Calm - N/A   Clear
8:34 AM 57.2 °F 55.4 °F 94% 30.00 in 10.0 mi South 3.5 mph - N/A   Clear
8:55 AM 59.0 °F 55.4 °F 88% 30.01 in 7.0 mi South 3.5 mph - N/A   Clear
9:15 AM 60.8 °F 57.2 °F 88% 30.01 in 10.0 mi SSW 4.6 mph - N/A   Clear
9:34 AM 62.6 °F 57.2 °F 82% 30.01 in 10.0 mi SSW 6.9 mph - N/A   Clear
9:55 AM 62.6 °F 57.2 °F 82% 30.01 in 10.0 mi SSW 8.1 mph - N/A   Clear
10:35 AM 64.4 °F 57.2 °F 77% 30.01 in 10.0 mi SW 10.4 mph - N/A   Clear
10:55 AM 66.2 °F 59.0 °F 78% 30.01 in 10.0 mi SSW 9.2 mph - N/A   Clear
11:14 AM 66.2 °F 60.8 °F 83% 30.01 in 10.0 mi SSW 8.1 mph - N/A   Clear
11:35 AM 68.0 °F 60.8 °F 78% 30.00 in 10.0 mi SSW 8.1 mph - N/A   Clear
11:55 AM 69.8 °F 60.8 °F 73% 30.00 in 10.0 mi SSW 9.2 mph - N/A   Clear
12:14 PM 69.8 °F 60.8 °F 73% 30.00 in 10.0 mi SW 8.1 mph - N/A   Clear
12:35 PM 71.6 °F 60.8 °F 69% 30.00 in 10.0 mi NW 8.1 mph - N/A   Clear
12:55 PM 71.6 °F 60.8 °F 69% 30.00 in 10.0 mi WSW 9.2 mph - N/A   Clear
1:14 PM 71.6 °F 60.8 °F 69% 29.99 in 10.0 mi SW 11.5 mph - N/A   Clear
1:35 PM 71.6 °F 60.8 °F 69% 29.98 in 10.0 mi SSW 8.1 mph - N/A   Clear
1:55 PM 73.4 °F 60.8 °F 65% 29.97 in 10.0 mi SSW 12.7 mph - N/A   Clear
2:15 PM 73.4 °F 62.6 °F 69% 29.97 in 10.0 mi SSW 9.2 mph - N/A   Clear
2:35 PM 73.4 °F 60.8 °F 65% 29.97 in 10.0 mi South 11.5 mph - N/A   Clear
2:54 PM 75.2 °F 60.8 °F 61% 29.97 in 10.0 mi SW 10.4 mph - N/A   Clear
3:15 PM 75.2 °F 60.8 °F 61% 29.95 in 10.0 mi SSE 10.4 mph - N/A   Clear
3:35 PM 75.2 °F 62.6 °F 65% 29.96 in 10.0 mi SSW 10.4 mph - N/A   Clear
3:54 PM 75.2 °F 62.6 °F 65% 29.95 in 10.0 mi SSW 9.2 mph - N/A   Clear
4:15 PM 75.2 °F 60.8 °F 61% 29.95 in 10.0 mi South 13.8 mph 18.4 mph N/A   Clear
4:35 PM 75.2 °F 60.8 °F 61% 29.94 in 10.0 mi South 13.8 mph - N/A   Clear
4:54 PM 75.2 °F 60.8 °F 61% 29.94 in 10.0 mi SSW 12.7 mph - N/A   Clear
5:15 PM 75.2 °F 60.8 °F 61% 29.94 in 10.0 mi SSW 12.7 mph - N/A   Clear
5:35 PM 75.2 °F 62.6 °F 65% 29.94 in 10.0 mi SSW 9.2 mph - N/A   Clear
5:54 PM 73.4 °F 60.8 °F 65% 29.95 in 10.0 mi South 13.8 mph 18.4 mph N/A   Clear
6:15 PM 73.4 °F 60.8 °F 65% 29.95 in 10.0 mi South 10.4 mph - N/A   Clear
6:35 PM 73.4 °F 60.8 °F 65% 29.95 in 10.0 mi South 8.1 mph - N/A   Clear
6:54 PM 71.6 °F 60.8 °F 69% 29.95 in 10.0 mi South 9.2 mph - N/A   Clear
7:15 PM 69.8 °F 60.8 °F 73% 29.95 in 10.0 mi South 6.9 mph - N/A   Clear
7:35 PM 69.8 °F 60.8 °F 73% 29.96 in 10.0 mi South 8.1 mph - N/A   Clear
7:55 PM 69.8 °F 60.8 °F 73% 29.96 in 10.0 mi South 6.9 mph - N/A   Clear
8:15 PM 68.0 °F 60.8 °F 78% 29.96 in 10.0 mi South 5.8 mph - N/A   Clear
8:34 PM 66.2 °F 60.8 °F 83% 29.96 in 10.0 mi South 6.9 mph - N/A   Clear
8:55 PM 66.2 °F 60.8 °F 83% 29.97 in 10.0 mi South 3.5 mph - N/A   Clear
9:15 PM 66.2 °F 59.0 °F 78% 29.97 in 10.0 mi SSE 5.8 mph - N/A   Clear
9:34 PM 66.2 °F 59.0 °F 78% 29.97 in 10.0 mi SSE 5.8 mph - N/A   Clear
9:55 PM 64.4 °F 59.0 °F 83% 29.96 in 10.0 mi SSE 5.8 mph - N/A   Clear
10:14 PM 66.2 °F 59.0 °F 78% 29.96 in 10.0 mi SSE 6.9 mph - N/A   Clear
10:35 PM 64.4 °F 59.0 °F 83% 29.97 in 10.0 mi South 6.9 mph - N/A   Clear
10:55 PM 64.4 °F 57.2 °F 77% 29.97 in 10.0 mi South 6.9 mph - N/A   Clear
11:14 PM 64.4 °F 57.2 °F 77% 29.97 in 10.0 mi South 8.1 mph - N/A   Clear
11:35 PM 64.4 °F 55.4 °F 73% 29.97 in 10.0 mi South 6.9 mph - N/A   Clear
11:55 PM 62.6 °F 55.4 °F 77% 29.97 in 10.0 mi South 5.8 mph - N/A   Clear